This is the latest recevied weather packets stored in our database for station/object KU4DD. If no packets are shown the sender has not sent any weather packets the latest 10 day(s).
| Time | Temp. | Humidity | Pressure | Rain* | Wind** | Luminosity | Snow |
|---|---|---|---|---|---|---|---|
| 1777871912 | 20° C | 50% | 1015.2 hPa | 0 mm | - | - | - |
| 1777869406 | 20° C | 51% | 1015.2 hPa | 0 mm | - | - | - |
| 1777868770 | 20° C | 50% | 1015.2 hPa | 0 mm | - | - | - |
| 1777868452 | 20° C | 50% | 1015.2 hPa | 0 mm | - | - | - |
| 1777867506 | 20° C | 51% | 1015.2 hPa | 0 mm | - | - | - |
| 1777861238 | 21.11° C | 49% | 1015.2 hPa | 0 mm | - | - | - |
| 1777860914 | 21.11° C | 48% | 1015.2 hPa | 0 mm | - | - | - |
| 1777859965 | 21.11° C | 48% | 1014.9 hPa | 0 mm | - | - | - |
| 1777856509 | 21.67° C | 46% | 1014.2 hPa | 0 mm | - | - | - |
| 1777856184 | 21.67° C | 46% | 1014.2 hPa | 0 mm | - | - | - |
| 1777854297 | 21.67° C | 45% | 1013.9 hPa | 0 mm | - | - | - |
| 1777853970 | 21.67° C | 45% | 1013.9 hPa | 0 mm | - | - | - |
| 1777850834 | 22.22° C | 43% | 1013.5 hPa | 0 mm | - | - | - |
| 1777845819 | 21.67° C | 41% | 1013.5 hPa | 0 mm | - | - | - |
| 1777842056 | 21.67° C | 40% | 1013.5 hPa | 0 mm | - | - | - |
| 1777840485 | 21.11° C | 40% | 1013.5 hPa | 0 mm | - | - | - |
| 1777839226 | 21.11° C | 41% | 1014.2 hPa | 0 mm | - | - | - |
| 1777838902 | 21.11° C | 41% | 1014.2 hPa | 0 mm | - | - | - |
| 1777836702 | 20.56° C | 43% | 1014.6 hPa | 0 mm | - | - | - |
| 1777835441 | 20.56° C | 43% | 1014.9 hPa | 0 mm | - | - | - |
| 1777834183 | 20.56° C | 45% | 1015.2 hPa | 0 mm | - | - | - |
| 1777833859 | 20.56° C | 44% | 1015.2 hPa | 0 mm | - | - | - |
| 1777832603 | 20° C | 46% | 1015.2 hPa | 0 mm | - | - | - |
| 1777831657 | 20° C | 46% | 1015.6 hPa | 0 mm | - | - | - |
| 1777831023 | 20° C | 45% | 1015.6 hPa | 0 mm | - | - | - |
* Rain latest hour (hover to see other rain measurements)
** Current wind speed in m/s (hover to see current wind gust speed)